Location: Newark
(42.7133°N, 87.7910°W)
Time: 13:56:30
(UTC+00:00)

Vanguard 1 - Pass Details

Date: 22 September 2019
Orbit: 653 x 3830 km, 34.2° (Epoch: 20 October)

Event Time Altitude Azimuth Distance (km) Brightness Sun altitude
Rises 04:56:47 0° 200° (SSW) 7,064 - -45.6°
Reaches altitude 10° 05:02:11 10° 190° (S) 6,397 - -45.8°
Maximum altitude 05:19:34 31° 138° (SE) 5,354 - -46.5°
Exits shadow 05:27:48 25° 109° (ESE) 5,639 13.6 -46.7°
Drops below altitude 10° 05:36:58 10° 87° (E) 6,496 14.2 -46.8°
Sets 05:42:21 0° 78° (ENE) 7,195 14.6 -46.9°
